Hastings, NE

2:04 AM CST on November 13, 2019 (GMT -0600)
Hastings Municipal

Weather History for KHSI - October, 2019

Change the Weather History Date:

Sunday, October 20, 2019

  Actual Average Record
Temperature  
Mean Temperature 53 °F 51 °F  
Max Temperature 64 °F 63 °F 92 °F (1947)
Min Temperature 42 °F 39 °F 18 °F (1916)
Degree Days  
Heating Degree Days 12 14  
Month to date heating degree days 257 211  
Since 1 July heating degree days 271 307  
Cooling Degree Days 0 0  
Month to date cooling degree days 1 11  
Year to date cooling degree days 1181 1074  
Growing Degree Days 6 (Base 50)    
Moisture  
Dew Point 36 °F    
Average Humidity 45    
Maximum Humidity 67    
Minimum Humidity 23    
Precipitation  
Precipitation 0.00 in 0.07 in 1.31 in (1962)
Month to date precipitation 1.17 1.42  
Year to date precipitation 31.92 24.64  
Sea Level Pressure  
Sea Level Pressure 29.62 in    
Wind  
Wind Speed 12 mph (South)    
Max Wind Speed 24 mph    
Max Gust Speed 35 mph    
Visibility 10 miles    
Events      
T = Trace of Precipitation, MM = Missing Value Source: NWS Daily Summary

Daily Weather History Graph

Daily Weather History Graph

Search for Another Location

Airport or City:

Astronomy

Oct. 20, 2019 Rise Set
Actual Time 7:50 AM CDT 6:46 PM CDT
Civil Twilight 7:22 AM CDT 7:14 PM CDT
Nautical Twilight 6:50 AM CDT 7:45 PM CDT
Astronomical Twilight 6:18 AM CDT 8:17 PM CDT
Moon 11:55 PM CDT (10/20) 2:20 PM CDT (10/20)
Length of Visible Light 11h 51m
Length of Day
10h 56m
Waning Gibbous, 59% of the Moon is Illuminated
Oct 20
Waning Gibbous
Oct 21
Last Quarter
Oct 27
New
Nov 4
First Quarter
Nov 12
Full

Hourly Weather History & Observations

Time (CDT) Temp. Dew Point Humidity Pressure Visibility Wind Dir Wind Speed Gust Speed Precip Events Conditions
12:53 AM 48.9 °F 36.0 °F 61% 29.75 in 10.0 mi South 6.9 mph - N/A   Clear
1:53 AM 48.9 °F 36.0 °F 61% 29.73 in 10.0 mi SSE 8.1 mph - N/A   Clear
2:53 AM 48.9 °F 36.0 °F 61% 29.73 in 10.0 mi South 8.1 mph - N/A   Clear
3:53 AM 48.9 °F 35.1 °F 59% 29.70 in 10.0 mi SSE 10.4 mph - N/A   Clear
4:53 AM 48.0 °F 36.0 °F 63% 29.70 in 10.0 mi SSE 9.2 mph - N/A   Clear
5:53 AM 48.9 °F 36.0 °F 61% 29.67 in 10.0 mi SSE 12.7 mph 21.9 mph N/A   Clear
6:53 AM 50.0 °F 37.0 °F 61% 29.66 in 10.0 mi SSE 11.5 mph - N/A   Clear
7:53 AM 51.1 °F 39.0 °F 63% 29.65 in 10.0 mi SSE 11.5 mph - N/A   Scattered Clouds
8:53 AM 52.0 °F 39.0 °F 61% 29.65 in 10.0 mi South 12.7 mph 21.9 mph N/A   Clear
9:53 AM 53.1 °F 41.0 °F 64% 29.65 in 10.0 mi SSE 16.1 mph 28.8 mph N/A   Partly Cloudy
11:53 AM 55.9 °F 45.0 °F 67% 29.62 in 10.0 mi SSE 19.6 mph 29.9 mph N/A   Overcast
12:53 PM 57.9 °F 46.0 °F 65% 29.62 in 10.0 mi South 16.1 mph 27.6 mph N/A   Overcast
1:53 PM 59.0 °F 45.0 °F 60% 29.58 in 10.0 mi South 19.6 mph 33.4 mph N/A   Overcast
2:53 PM 57.9 °F 46.0 °F 65% 29.56 in 10.0 mi South 15.0 mph 27.6 mph N/A   Overcast
3:53 PM 60.1 °F 46.9 °F 62% 29.55 in 10.0 mi SSE 13.8 mph 23.0 mph N/A   Overcast
4:53 PM 62.1 °F 46.0 °F 56% 29.55 in 10.0 mi South 10.4 mph 21.9 mph N/A   Mostly Cloudy
5:21 PM 64.0 °F 25.0 °F 23% 29.56 in 10.0 mi West 12.7 mph 24.2 mph N/A   Mostly Cloudy
5:53 PM 60.1 °F 23.0 °F 24% 29.57 in 10.0 mi West 11.5 mph 23.0 mph N/A   Clear
6:53 PM 55.9 °F 27.0 °F 33% 29.59 in 10.0 mi WSW 6.9 mph - N/A   Partly Cloudy
7:53 PM 54.0 °F 27.0 °F 35% 29.60 in 10.0 mi South 6.9 mph - N/A   Clear
8:53 PM 53.1 °F 26.1 °F 35% 29.59 in 10.0 mi SSW 9.2 mph - N/A   Clear
9:53 PM 50.0 °F 27.0 °F 41% 29.57 in 10.0 mi SW 6.9 mph - N/A   Clear
10:53 PM 48.9 °F 30.9 °F 50% 29.55 in 10.0 mi SW 12.7 mph 21.9 mph N/A   Clear
11:53 PM 46.9 °F 32.0 °F 56% 29.53 in 10.0 mi WSW 16.1 mph 24.2 mph N/A   Scattered Clouds